EW8088 Weather Reports


time (UTC)temp
F
wind
direction
speed
knots
gust
knots
rain 1hr
in
rain 24hr
in
rain mn
in
humidity
%
barometer
mb
20260506051015 44 0.0 1.7 0.00 0.00 0.00 93 1013.7
20260506045015 44 0.0 3.5 0.00 0.00 0.00 93 1013.6
20260506044018 44 0.0 1.7 0.00 0.00 0.00 93 1013.6
20260506043015 45 0.0 2.6 0.00 0.00 0.00 93 1013.6
20260506042017 45 0.0 2.6 0.00 0.00 0.00 93 1013.6
20260506041035 45 0.0 3.5 0.00 0.00 0.00 93 1013.6
20260506040018 45 0.0 4.3 0.00 0.00 0.00 93 1013.6
20260506035017 45 338 0.9 3.5 0.00 0.00 0.00 93 1013.6
20260506034017 45 338 0.9 4.3 0.00 0.00 0.00 93 1013.6
20260506033037 45 0 0.9 4.3 0.00 0.00 0.00 93 1013.6
20260506032018 45 338 0.9 4.3 0.00 0.00 0.00 93 1013.6
20260506031018 45 0 0.9 6.1 0.00 0.00 0.00 93 1013.7
20260506030037 46 0.0 2.6 0.00 0.00 0.00 93 1013.8
20260506025017 46 0.0 4.3 0.00 0.00 0.00 93 1013.7
20260506024037 46 0.0 2.6 0.00 0.00 0.00 93 1013.7
20260506023017 46 0 0.9 4.3 0.00 0.00 0.00 93 1013.7
20260506022017 46 0 0.9 4.3 0.00 0.00 0.00 93 1013.8
20260506021037 46 0.0 4.3 0.00 0.00 0.00 93 1013.8
20260506020015 47 0.0 4.3 0.00 0.00 0.00 93 1013.8
20260506015037 47 0.0 1.7 0.00 0.00 0.00 93 1013.8
20260506014017 47 0.0 0.9 0.00 0.00 0.00 93 1013.7
20260506013017 47 0.0 2.6 0.00 0.00 0.00 93 1013.9
20260506012017 47 0.0 1.7 0.00 0.00 0.00 93 1013.9
20260506011018 48 0.0 1.7 0.00 0.00 0.00 93 1014.0
20260506010017 48 0.0 1.7 0.00 0.00 0.00 94 1013.9
20260506005017 48 0.0 2.6 0.00 0.00 0.00 94 1013.9
20260506004017 48 0.0 2.6 0.00 0.00 0.00 94 1013.8
20260506003017 48 0.0 3.5 0.00 0.00 0.00 94 1013.9
20260506002017 48 0.0 3.5 0.00 0.00 0.00 94 1013.9
20260506001017 48 0.0 2.6 0.00 0.00 0.00 94 1014.0
20260506000017 49 0.0 3.5 0.00 0.00 0.00 94 1014.0
20260505235017 49 0.0 5.2 0.00 0.00 0.00 94 1013.9
20260505234017 49 0.0 2.6 0.00 0.00 0.00 94 1014.0
20260505233017 49 0.0 3.5 0.00 0.00 0.00 94 1014.0
20260505232017 49 0.0 2.6 0.00 0.00 0.00 94 1014.0
20260505231017 49 0.0 2.6 0.00 0.00 0.00 94 1014.0
20260505230017 49 0.0 5.2 0.00 0.00 0.00 94 1014.0
20260505225037 50 0 0.9 6.1 0.00 0.00 0.00 94 1014.0
20260505224037 50 0.0 2.6 0.00 0.00 0.00 94 1014.0
20260505223017 50 0.0 1.7 0.00 0.00 0.00 94 1014.0
20260505222037 50 0.0 2.6 0.00 0.00 0.00 94 1014.0
20260505221017 50 0.0 3.5 0.00 0.00 0.00 93 1013.9
20260505220017 50 0.0 4.3 0.00 0.00 0.00 93 1014.0
20260505215017 50 0.0 4.3 0.00 0.00 0.00 94 1013.8
20260505214017 51 0.0 4.3 0.00 0.00 0.00 94 1013.8
20260505213017 51 0.0 3.5 0.00 0.00 0.00 94 1013.8
20260505212017 51 0.0 5.2 0.00 0.00 0.00 94 1013.7
20260505211017 51 0.0 4.3 0.00 0.00 0.00 94 1013.7
20260505210017 52 0.0 5.2 0.00 0.00 0.00 94 1013.6
20260505205017 52 0 0.9 5.2 0.00 0.00 0.00 94 1013.6
20260505204037 52 0.0 3.5 0.00 0.00 0.00 94 1013.4
20260505203017 53 0.0 3.5 0.00 0.00 0.00 94 1013.3
20260505202017 53 0 0.9 4.3 0.00 0.00 0.00 94 1013.3
20260505201017 54 0.0 2.6 0.00 0.00 0.00 94 1013.3
20260505200017 54 0 0.9 6.1 0.00 0.00 0.00 94 1013.1
20260505195017 54 0.0 4.3 0.00 0.00 0.00 95 1013.0
20260505194037 55 338 0.9 6.1 0.00 0.00 0.00 95 1012.8
20260505193017 55 0.0 2.6 0.00 0.00 0.00 95 1012.8
20260505192017 55 0.0 2.6 0.00 0.00 0.00 95 1012.7
20260505190017 56 0.0 1.7 0.00 0.00 0.00 96 1012.5
20260505185017 56 0.0 0.0 0.00 0.00 0.00 96 1012.5
20260505184017 57 0.0 3.5 0.00 0.00 0.00 96 1012.3
20260505183017 57 0 0.9 4.3 0.00 0.00 0.00 96 1012.3
20260505182017 57 338 0.9 3.5 0.00 0.00 0.00 96 1012.3
20260505181017 58 0 0.9 5.2 0.00 0.00 0.00 95 1012.2
20260505180016 58 338 1.7 3.5 0.00 0.00 0.00 95 1012.2
20260505175017 58 0 1.7 5.2 0.00 0.00 0.00 95 1012.2
20260505174017 58 0 0.9 4.3 0.00 0.00 0.00 95 1012.2
20260505173017 58 0 1.7 5.2 0.00 0.00 0.00 95 1012.2
20260505172016 58 0 0.9 3.5 0.00 0.00 0.00 95 1012.3
20260505171017 58 338 0.9 4.3 0.00 0.00 0.00 94 1012.3
20260505170036 58 0 0.9 3.5 0.00 0.00 0.00 95 1012.4
20260505165017 58 338 0.9 5.2 0.00 0.00 0.00 95 1012.3
20260505164016 58 338 0.9 3.5 0.00 0.00 0.00 95 1012.4
20260505163017 58 338 1.7 5.2 0.00 0.00 0.00 94 1012.3
20260505162016 58 338 0.9 4.3 0.00 0.00 0.00 94 1012.3
20260505161017 58 338 0.9 3.5 0.00 0.00 0.00 94 1012.3
20260505153016 58 0.0 1.7 0.00 0.00 0.00 94 1012.4
20260505152017 58 0.0 1.7 0.00 0.00 0.00 94 1012.4
20260505151116 58 0 0.9 4.3 0.00 0.00 0.00 94 1012.4
20260505125016 59 0.0 1.7 0.00 0.00 0.00 94 1013.0
20260505124016 59 338 0.9 3.5 0.00 0.00 0.00 94 1012.9
20260505123036 60 0 0.9 3.5 0.00 0.00 0.00 94 1013.0
20260505122016 60 0.0 2.6 0.00 0.00 0.00 94 1013.0
20260505121016 60 0.0 4.3 0.00 0.00 0.00 94 1013.0
20260505120036 59 0.0 3.5 0.00 0.00 0.00 94 1013.1
20260505115016 59 0 0.9 4.3 0.00 0.00 0.00 94 1013.0
20260505114016 58 0 0.9 3.5 0.00 0.00 0.00 94 1013.1
20260505113016 57 0 0.9 3.5 0.00 0.00 0.00 94 1013.2
20260505112036 57 0.0 2.6 0.00 0.00 0.00 94 1013.3
20260505111016 57 0 0.9 4.3 0.00 0.00 0.00 94 1013.4
20260505102016 57 0 0.9 3.5 0.00 0.00 0.00 95 1013.7
20260505101016 58 338 0.9 4.3 0.00 0.00 0.00 95 1013.7
20260505100036 58 0.0 3.5 0.00 0.00 0.00 95 1013.7
20260505095036 58 0.0 1.7 0.00 0.00 0.00 95 1013.8
20260505094016 58 0.0 2.6 0.00 0.00 0.00 95 1013.8
20260505093036 56 0 0.9 5.2 0.00 0.00 0.00 95 1013.8
20260505092016 56 338 0.9 4.3 0.00 0.00 0.00 94 1013.8
20260505091016 55 338 0.9 3.5 0.00 0.00 0.00 95 1013.8
20260505090036 55 0 0.9 3.5 0.00 0.00 0.00 95 1013.8
20260505085016 54 0 0.9 5.2 0.00 0.00 0.00 95 1013.9
20260505084036 54 338 0.9 3.5 0.00 0.00 0.00 95 1013.9
20260505083016 54 0 0.9 4.3 0.00 0.00 0.00 95 1013.9
20260505082016 53 338 0.9 3.5 0.00 0.00 0.00 95 1013.9
20260505081036 53 338 0.9 5.2 0.00 0.00 0.00 95 1014.0
20260505080035 53 338 0.9 4.3 0.00 0.00 0.00 95 1013.9
20260505075016 53 0.0 1.7 0.00 0.00 0.00 95 1013.9
20260505074015 52 0.0 2.6 0.00 0.00 0.00 95 1013.9
20260505073016 51 0.0 1.7 0.00 0.00 0.00 95 1014.0
20260505072056 51 0.0 0.9 0.00 0.00 0.00 95 1014.0
20260505071035 50 0.0 0.9 0.00 0.00 0.00 95 1014.0
20260505070115 50 0.0 0.9 0.00 0.00 0.00 95 1014.1
20260505065015 50 0.0 0.9 0.00 0.00 0.00 95 1014.1
20260505064015 50 0.0 0.9 0.00 0.00 0.00 95 1014.0
20260505063035 50 0.0 0.9 0.00 0.00 0.00 95 1014.1
20260505062016 49 0.0 0.9 0.00 0.00 0.00 95 1014.1
20260505061015 49 0.0 0.9 0.00 0.00 0.00 95 1014.2
20260505060017 49 0.0 0.0 0.00 0.00 0.00 95 1014.2
20260505055017 49 0.0 0.0 0.00 0.00 0.00 95 1014.2
20260505054037 49 0.0 0.0 0.00 0.00 0.00 95 1014.3
20260505053017 49 0.0 0.0 0.00 0.00 0.00 95 1014.4
20260505052017 49 0.0 0.0 0.00 0.00 0.00 95 1014.4